Weather History for KAPA - June, 2013

Change the Weather History Date:

Wednesday, June 19, 2013

  Actual Average Record
Temperature  
Mean Temperature 73 °F -  
Max Temperature 92 °F 78 °F 95 °F (2006)
Min Temperature 54 °F 49 °F 43 °F (2004)
Cooling Degree Days 8    
Month to date cooling degree days 91  
Growing Degree Days 22 (Base 50)    
Moisture  
Dew Point 38 °F    
Average Humidity 46    
Maximum Humidity 83    
Minimum Humidity 9    
Precipitation  
Precipitation 0.00 in - - ()
Month to date precipitation 0.26  
Year to date precipitation 5.02  
Sea Level Pressure  
Sea Level Pressure 29.69 in    
Wind  
Wind Speed 15 mph (South)    
Max Wind Speed 30 mph    
Max Gust Speed 37 mph    
Visibility 9 miles    
Events      
Averages and records for this station are not official NWS values.
T = Trace of Precipitation, MM = Missing Value Source: NWS Daily Summary

Daily Weather History Graph

Daily Weather History Graph

Search for Another Location

Airport or City:

Trip Planner

Search our weather history database for the weather conditions in past years. The results will help you decide how hot, cold, wet, or windy it might be!

Date:

Astronomy

Jun. 19, 2013 Rise Set
Actual Time 5:31 AM MDT 8:29 PM MDT
Civil Twilight 4:59 AM MDT 9:02 PM MDT
Nautical Twilight 4:18 AM MDT 9:43 PM MDT
Astronomical Twilight 3:30 AM MDT 10:31 PM MDT
Moon 4:26 PM MDT (6/19) 2:17 AM MDT (6/19)
Length of Visible Light 16h 03m
Length of Day
14h 58m
Waxing Gibbous, 81% of the Moon is Illuminated
Jun 19
Waxing Gibbous
Jun 23
Full
Jun 29
Last Quarter
Jul 8
New
Jul 15
First Quarter

Hourly Weather History & Observations

Time (MDT) Temp. Dew Point Humidity Pressure Visibility Wind Dir Wind Speed Gust Speed Precip Events Conditions
12:53 AM 60.1 °F 45.0 °F 57% 29.83 in 10.0 mi SSE 17.3 mph 24.2 mph N/A   Mostly Cloudy
1:53 AM 57.9 °F 48.9 °F 72% 29.87 in 10.0 mi SSE 19.6 mph 27.6 mph N/A   Scattered Clouds
2:53 AM 57.0 °F 48.9 °F 74% 29.86 in 10.0 mi SSE 18.4 mph 27.6 mph N/A   Scattered Clouds
3:53 AM 55.9 °F 48.9 °F 77% 29.83 in 10.0 mi South 12.7 mph - N/A   Scattered Clouds
4:53 AM 55.0 °F 48.9 °F 80% 29.82 in 10.0 mi South 6.9 mph - N/A   Scattered Clouds
5:53 AM 54.0 °F 48.0 °F 80% 29.82 in 10.0 mi SSE 12.7 mph - N/A   Clear
6:53 AM 57.9 °F 50.0 °F 75% 29.83 in 10.0 mi SSE 13.8 mph - N/A   Clear
7:53 AM 64.0 °F 50.0 °F 60% 29.80 in 10.0 mi South 11.5 mph - N/A   Partly Cloudy
8:53 AM 71.1 °F 48.0 °F 44% 29.76 in 10.0 mi SSW 5.8 mph - N/A   Partly Cloudy
9:53 AM 78.1 °F 42.1 °F 28% 29.71 in 10.0 mi South 10.4 mph - N/A   Partly Cloudy
10:53 AM 84.9 °F 32.0 °F 15% 29.67 in 10.0 mi SSW 12.7 mph - N/A   Partly Cloudy
11:53 AM 86.0 °F 30.9 °F 14% 29.65 in 10.0 mi SSE 8.1 mph 17.3 mph N/A   Scattered Clouds
12:53 PM 89.1 °F 30.0 °F 12% 29.62 in 10.0 mi SE 12.7 mph 23.0 mph N/A   Scattered Clouds
1:53 PM 90.0 °F 30.0 °F 12% 29.60 in 10.0 mi SSE 18.4 mph 24.2 mph N/A   Scattered Clouds
2:53 PM 90.0 °F 30.0 °F 12% 29.57 in 10.0 mi SE 15.0 mph 23.0 mph N/A   Scattered Clouds
3:53 PM 90.0 °F 26.1 °F 10% 29.55 in 10.0 mi South 13.8 mph 26.5 mph N/A   Scattered Clouds
4:53 PM 91.0 °F 28.9 °F 11% 29.52 in 10.0 mi South 20.7 mph 32.2 mph N/A   Scattered Clouds
5:53 PM 88.0 °F 33.1 °F 14% 29.53 in 10.0 mi South 19.6 mph 29.9 mph N/A   Mostly Cloudy
6:53 PM 86.0 °F 28.9 °F 13% 29.52 in 10.0 mi South 23.0 mph 31.1 mph N/A   Mostly Cloudy
7:53 PM 82.0 °F 48.0 °F 30% 29.54 in 10.0 mi SSE 25.3 mph 33.4 mph N/A   Mostly Cloudy
8:53 PM 77.0 °F 50.0 °F 39% 29.55 in 10.0 mi SSE 12.7 mph - N/A   Scattered Clouds
9:14 PM 75.2 °F 48.2 °F 38% 29.79 in 10.0 mi South 12.7 mph 19.6 mph N/A   Overcast
9:27 PM 75.2 °F 46.4 °F 36% 29.79 in 10.0 mi South 12.7 mph - N/A   Overcast
9:53 PM 77.0 °F 34.0 °F 21% 29.54 in 5.0 mi SSW 12.7 mph - N/A   Haze
10:32 PM 75.2 °F 19.4 °F 12% 29.82 in 3.0 mi WSW 10.4 mph - N/A   Smoke
10:53 PM 73.4 °F 19.4 °F 13% 29.56 in 3.0 mi WSW 10.4 mph - N/A   Smoke
11:53 PM 73.4 °F 10.4 °F 9% 29.58 in 4.0 mi West 9.2 mph - N/A   Smoke